Temp: 5.0°C   Baro: 1014.1mb
  Wind: 2.0mph   Dir: ESE (118°)
  Rain: 1.0mm (0.0mm/hr)
  Solar: 0W/m2  Hum: 94%
 
Bath Spa Weather Station Historical Data
Daily Summary for September 22, 2020 Units:  Metric    English   Both
Daily Weekly Monthly Yearly Custom
  High: Low: Average:
Temperature: 20.5 °C 11.2 °C 15.2 °C
Dew Point: 16 °C 10.1 °C 13.3 °C
Humidity: 92% 68% 86%
Wind Speed: 13.8km/h 0km/h 2.9km/h
Wind Gust: 27.4km/h - -
Wind- - West
Pressure: 1014.8 hPa 1003.6 hPa -
Precipitation: 0.25 mm    
Historical Graphs
 
 
Tabular Data for September 22, 2020
Time Temperature Dew Point Pressure Wind Wind Speed Wind Gust Humidity Rainfall Rate (Hourly) solar
00:04 14.8 °C 13.1 °C 1014.8 hPa Calm     87% 0 mm 0 W/m2
00:09 14.7 °C 13.1 °C 1014.8 hPa Calm     87% 0 mm 0 W/m2
00:14 14.6 °C 13.1 °C 1014.4 hPa Calm     87.6% 0 mm 0 W/m2
00:19 14.6 °C 13 °C 1014.4 hPa Calm     87.8% 0 mm 0 W/m2
00:24 14.4 °C 12.9 °C 1014.4 hPa Calm     88% 0 mm 0 W/m2
00:29 14.3 °C 12.8 °C 1014.4 hPa Calm     88% 0 mm 0 W/m2
00:34 14.3 °C 12.8 °C 1014.4 hPa Calm     88% 0 mm 0 W/m2
00:39 14.3 °C 12.8 °C 1014.4 hPa Calm     88% 0 mm 0 W/m2
00:44 14.3 °C 12.8 °C 1014.4 hPa Calm     88% 0 mm 0 W/m2
00:49 14.3 °C 12.8 °C 1014.4 hPa Calm     88% 0 mm 0 W/m2
00:54 14.2 °C 12.7 °C 1014.4 hPa Calm     88% 0 mm 0 W/m2
00:59 14.1 °C 12.6 °C 1014.4 hPa Calm     88% 0 mm 0 W/m2
01:04 13.9 °C 12.4 °C 1014.1 hPa Calm     88% 0 mm 0 W/m2
01:09 13.8 °C 12.3 °C 1014.1 hPa Calm     88% 0 mm 0 W/m2
01:14 13.8 °C 12.3 °C 1014.1 hPa Calm     88% 0 mm 0 W/m2
01:19 13.8 °C 12.3 °C 1014.1 hPa Calm     88% 0 mm 0 W/m2
01:24 13.7 °C 12.2 °C 1014.1 hPa Calm     88% 0 mm 0 W/m2
01:29 13.6 °C 12.1 °C 1014.1 hPa Calm     88% 0 mm 0 W/m2
01:39 13.3 °C 11.8 °C 1013.8 hPa Calm     88% 0 mm 0 W/m2
01:44 13.2 °C 11.7 °C 1013.8 hPa Calm     88% 0 mm 0 W/m2
01:49 13.2 °C 11.7 °C 1013.8 hPa Calm     88% 0 mm 0 W/m2
01:54 13.2 °C 11.7 °C 1013.8 hPa Calm     88% 0 mm 0 W/m2
01:59 13.2 °C 11.7 °C 1013.8 hPa Calm     88% 0 mm 0 W/m2
02:04 13.2 °C 11.7 °C 1013.8 hPa Calm     88% 0 mm 0 W/m2
02:09 13.2 °C 11.7 °C 1013.8 hPa Calm     88% 0 mm 0 W/m2
02:14 13.2 °C 11.7 °C 1013.4 hPa Calm     88% 0 mm 0 W/m2
02:19 13.1 °C 11.6 °C 1013.4 hPa Calm     88% 0 mm 0 W/m2
02:24 13.1 °C 11.6 °C 1013.4 hPa Calm     88% 0 mm 0 W/m2
02:29 12.9 °C 11.6 °C 1013.4 hPa Calm     88% 0 mm 0 W/m2
02:34 12.9 °C 11.5 °C 1013.4 hPa Calm     88% 0 mm 0 W/m2
02:39 12.8 °C 11.4 °C 1013.4 hPa Calm     88% 0 mm 0 W/m2
02:44 12.8 °C 11.4 °C 1013.4 hPa Calm     88% 0 mm 0 W/m2
02:49 12.8 °C 11.4 °C 1013.1 hPa Calm     88% 0 mm 0 W/m2
02:54 12.7 °C 11.3 °C 1013.1 hPa Calm     88% 0 mm 0 W/m2
02:59 12.7 °C 11.3 °C 1013.1 hPa Calm     88% 0 mm 0 W/m2
03:04 12.7 °C 11.3 °C 1013.1 hPa Calm     88% 0 mm 0 W/m2
03:09 12.7 °C 11.3 °C 1013.1 hPa Calm     88% 0 mm 0 W/m2
03:14 12.7 °C 11.3 °C 1013.1 hPa Calm     88% 0 mm 0 W/m2
03:19 12.7 °C 11.2 °C 1013.1 hPa Calm     88% 0 mm 0 W/m2
03:24 12.6 °C 11.2 °C 1012.8 hPa Calm     88% 0 mm 0 W/m2
03:29 12.6 °C 11.2 °C 1012.8 hPa Calm     88% 0 mm 0 W/m2
03:34 12.4 °C 11.1 °C 1012.8 hPa Calm     88% 0 mm 0 W/m2
03:39 12.4 °C 11 °C 1012.8 hPa Calm     88% 0 mm 0 W/m2
03:44 12.3 °C 10.9 °C 1012.4 hPa Calm     88% 0 mm 0 W/m2
03:49 12.3 °C 10.8 °C 1012.4 hPa Calm     88% 0 mm 0 W/m2
03:54 12.2 °C 10.9 °C 1012.4 hPa Calm     88.6% 0 mm 0 W/m2
03:59 12.2 °C 10.9 °C 1012.4 hPa Calm     89% 0 mm 0 W/m2
04:04 12.2 °C 10.9 °C 1012.4 hPa Calm     89% 0 mm 0 W/m2
04:09 12.2 °C 10.9 °C 1012.1 hPa Calm     89% 0 mm 0 W/m2
04:14 12.2 °C 10.8 °C 1012.1 hPa Calm     88.6% 0 mm 0 W/m2
04:19 12.2 °C 10.8 °C 1012.1 hPa Calm     88% 0 mm 0 W/m2
04:24 12.2 °C 10.8 °C 1012.1 hPa Calm     88% 0 mm 0 W/m2
04:29 12.1 °C 10.7 °C 1012.1 hPa Calm     88% 0 mm 0 W/m2
04:34 12.1 °C 10.7 °C 1012.1 hPa Calm     88.4% 0 mm 0 W/m2
04:39 12 °C 10.7 °C 1012.1 hPa Calm     89% 0 mm 0 W/m2
04:44 11.9 °C 10.7 °C 1012.1 hPa Calm     89% 0 mm 0 W/m2
04:49 11.9 °C 10.6 °C 1012.1 hPa Calm     89% 0 mm 0 W/m2
04:54 11.9 °C 10.6 °C 1012.1 hPa Calm     89% 0 mm 0 W/m2
04:59 11.9 °C 10.6 °C 1012.1 hPa Calm     89% 0 mm 0 W/m2
05:04 11.8 °C 10.6 °C 1011.7 hPa Calm     89% 0 mm 0 W/m2
05:09 11.8 °C 10.5 °C 1011.7 hPa Calm     89% 0 mm 0 W/m2
05:14 11.7 °C 10.4 °C 1011.7 hPa Calm     89% 0 mm 0 W/m2
05:19 11.7 °C 10.4 °C 1011.7 hPa Calm     89% 0 mm 0 W/m2
05:24 11.6 °C 10.3 °C 1011.7 hPa Calm     89% 0 mm 0 W/m2
05:29 11.6 °C 10.3 °C 1011.7 hPa Calm     89% 0 mm 0 W/m2
05:34 11.6 °C 10.3 °C 1011.7 hPa Calm     89% 0 mm 0 W/m2
05:39 11.6 °C 10.3 °C 1011.7 hPa Calm     89% 0 mm 0 W/m2
05:44 11.6 °C 10.3 °C 1011.7 hPa Calm     89% 0 mm 0 W/m2
05:49 11.5 °C 10.4 °C 1011.7 hPa Calm     89.8% 0 mm 0 W/m2
05:54 11.5 °C 10.4 °C 1011.4 hPa Calm     90% 0 mm 0 W/m2
05:59 11.5 °C 10.3 °C 1011.4 hPa Calm     89.4% 0 mm 0 W/m2
06:04 11.4 °C 10.2 °C 1011.4 hPa Calm     89% 0 mm 0 W/m2
06:09 11.4 °C 10.2 °C 1011.4 hPa Calm     89.4% 0 mm 0 W/m2
06:14 11.3 °C 10.3 °C 1011.4 hPa Calm     90% 0 mm 0 W/m2
06:19 11.3 °C 10.2 °C 1011.4 hPa Calm     90% 0 mm 0 W/m2
06:24 11.3 °C 10.2 °C 1011.4 hPa Calm     90% 0 mm 0 W/m2
06:29 11.3 °C 10.2 °C 1011.4 hPa Calm     90% 0 mm 0 W/m2
06:34 11.3 °C 10.2 °C 1011.4 hPa Calm     90% 0 mm 0 W/m2
06:39 11.3 °C 10.2 °C 1011.4 hPa Calm     90% 0 mm 0 W/m2
06:44 11.3 °C 10.2 °C 1011.1 hPa Calm     90% 0 mm 0 W/m2
06:49 11.3 °C 10.2 °C 1011.1 hPa Calm     90% 0 mm 0 W/m2
06:54 11.2 °C 10.1 °C 1011.1 hPa Calm     90% 0 mm 0 W/m2
06:59 11.2 °C 10.1 °C 1011.1 hPa Calm     90% 0 mm 0 W/m2
07:04 11.2 °C 10.1 °C 1011.1 hPa Calm     90% 0 mm 7 W/m2
07:09 11.2 °C 10.2 °C 1011.1 hPa Calm     90.4% 0 mm 9 W/m2
07:14 11.3 °C 10.4 °C 1011.1 hPa Calm     91% 0 mm 12 W/m2
07:19 11.3 °C 10.4 °C 1011.1 hPa Calm     91% 0 mm 16 W/m2
07:24 11.3 °C 10.4 °C 1011.1 hPa Calm     91% 0 mm 19 W/m2
07:29 11.3 °C 10.4 °C 1011.1 hPa Calm     91% 0 mm 21 W/m2
07:34 11.4 °C 10.5 °C 1011.1 hPa Calm     91% 0 mm 25 W/m2
07:39 11.5 °C 10.6 °C 1011.1 hPa Calm     91% 0 mm 26 W/m2
07:44 11.7 °C 10.7 °C 1011.1 hPa Calm     91% 0 mm 30 W/m2
07:49 11.7 °C 10.8 °C 1010.7 hPa Calm     91% 0 mm 32 W/m2
07:54 11.8 °C 10.9 °C 1010.7 hPa Calm     91% 0 mm 35 W/m2
07:59 12.1 °C 11 °C 1010.7 hPa Calm     90.2% 0 mm 37 W/m2
08:04 12.2 °C 11.1 °C 1010.7 hPa Calm     90% 0 mm 40 W/m2
08:09 12.4 °C 11.3 °C 1010.7 hPa Calm     90% 0 mm 42 W/m2
08:14 12.7 °C 11.4 °C 1010.7 hPa Calm     89.2% 0 mm 47 W/m2
08:19 12.9 °C 11.6 °C 1010.7 hPa Calm     88.4% 0 mm 56 W/m2
08:24 13 °C 11.4 °C 1010.7 hPa Calm   1.6 km/h 87.4% 0 mm 65 W/m2
08:29 13.3 °C 11.7 °C 1010.7 hPa Calm     86.8% 0 mm 76 W/m2
08:34 13.4 °C 11.6 °C 1010.7 hPa Calm     85.8% 0 mm 90 W/m2
08:39 13.4 °C 11.4 °C 1010.7 hPa Calm     85% 0 mm 104 W/m2
08:43 13.6 °C 11.6 °C 1010.7 hPa Calm     85% 0 mm 113 W/m2
08:49 13.8 °C 11.8 °C 1010.7 hPa Calm     84.8% 0 mm 127 W/m2
08:54 14.1 °C 11.8 °C 1010.7 hPa Calm     83.8% 0 mm 141 W/m2
08:59 14.4 °C 12.1 °C 1010.4 hPa NW 0.6 km/h 3.2 km/h 83.2% 0 mm 155 W/m2
09:04 14.4 °C 12 °C 1010.4 hPa NW 0.8 km/h 4.8 km/h 82.6% 0 mm 171 W/m2
09:09 14.7 °C 12.2 °C 1010.4 hPa NW 1.3 km/h 4.8 km/h 82% 0 mm 185 W/m2
09:14 15.4 °C 12.7 °C 1010.7 hPa NW 0.3 km/h 1.6 km/h 81.2% 0 mm 199 W/m2
09:19 15.9 °C 12.7 °C 1010.4 hPa NW 0.3 km/h 3.2 km/h 78.8% 0 mm 213 W/m2
09:24 16.2 °C 12.8 °C 1010.7 hPa NW 0.6 km/h 3.2 km/h 78% 0 mm 229 W/m2
09:29 16.6 °C 12.8 °C 1010.7 hPa Calm     76.4% 0 mm 243 W/m2
09:34 16.6 °C 12.6 °C 1010.7 hPa NW 0.8 km/h 3.2 km/h 74.8% 0 mm 257 W/m2
09:39 16.4 °C 12.4 °C 1010.7 hPa WSW 4.5 km/h 11.3 km/h 74.8% 0 mm 269 W/m2
09:44 16.3 °C 12.3 °C 1010.4 hPa SW 5 km/h 12.9 km/h 74.8% 0 mm 292 W/m2
09:49 16.5 °C 12.5 °C 1010.4 hPa West 2.1 km/h 6.4 km/h 75% 0 mm 295 W/m2
09:54 16.7 °C 12.7 °C 1010.4 hPa West 3.9 km/h 8 km/h 75% 0 mm 309 W/m2
09:59 16.8 °C 12.8 °C 1010.4 hPa West 4 km/h 11.3 km/h 74.8% 0 mm 323 W/m2
10:04 16.9 °C 12.9 °C 1010.4 hPa West 5 km/h 8 km/h 75.4% 0 mm 336 W/m2
10:09 17.1 °C 13.2 °C 1010.4 hPa West 10.3 km/h 16.1 km/h 76% 0 mm 350 W/m2
10:14 17.1 °C 13.2 °C 1010.4 hPa WSW 6 km/h 12.9 km/h 75.6% 0 mm 359 W/m2
10:19 16.9 °C 13.1 °C 1010.4 hPa WSW 5.6 km/h 11.3 km/h 75.8% 0 mm 362 W/m2
10:24 17.3 °C 13.6 °C 1010 hPa WSW 5.1 km/h 9.7 km/h 76.6% 0 mm 380 W/m2
10:29 17.6 °C 13.7 °C 1010 hPa SW 3.4 km/h 9.7 km/h 75.6% 0 mm 387 W/m2
10:34 17.9 °C 13.7 °C 1010 hPa SW 1.3 km/h 8 km/h 74% 0 mm 399 W/m2
10:39 18.2 °C 13.8 °C 1010 hPa WSW 4.7 km/h 9.7 km/h 73.6% 0 mm 413 W/m2
10:44 17.8 °C 13.7 °C 1010 hPa SW 3.7 km/h 11.3 km/h 74% 0 mm 427 W/m2
10:49 18.1 °C 13.8 °C 1010 hPa SSW 6.8 km/h 16.1 km/h 73.4% 0 mm 441 W/m2
10:54 18.3 °C 13.6 °C 1010 hPa SSW 6.4 km/h 14.5 km/h 71.8% 0 mm 446 W/m2
10:59 18.6 °C 13.2 °C 1010 hPa SW 7.9 km/h 12.9 km/h 68.8% 0 mm 452 W/m2
11:04 18.7 °C 13.1 °C 1010 hPa SW 4.7 km/h 12.9 km/h 68% 0 mm 454 W/m2
11:09 18.9 °C 13.6 °C 1009.7 hPa SW 7.2 km/h 14.5 km/h 69% 0 mm 432 W/m2
11:14 18.5 °C 13.7 °C 1009.7 hPa SW 7.1 km/h 14.5 km/h 71.6% 0 mm 441 W/m2
11:19 18.6 °C 14.2 °C 1009.7 hPa WSW 9.8 km/h 12.9 km/h 73% 0 mm 475 W/m2
11:24 18.8 °C 14.6 °C 1009.4 hPa WSW 5.8 km/h 11.3 km/h 74% 0 mm 478 W/m2
11:29 19.2 °C 15.1 °C 1009.4 hPa WSW 5.3 km/h 9.7 km/h 74.8% 0 mm 526 W/m2
11:34 19.7 °C 15.4 °C 1009.4 hPa WSW 6 km/h 11.3 km/h 74% 0 mm 594 W/m2
11:39 20 °C 15.6 °C 1009.4 hPa WSW 5.3 km/h 12.9 km/h 73.6% 0 mm 656 W/m2
11:44 20.5 °C 16 °C 1009 hPa SSW 6.4 km/h 16.1 km/h 73% 0 mm 622 W/m2
11:49 20.5 °C 15.8 °C 1009 hPa SW 8.5 km/h 16.1 km/h 72% 0 mm 615 W/m2
11:54 20.3 °C 15.6 °C 1009 hPa SSW 12.1 km/h 20.9 km/h 72.2% 0 mm 615 W/m2
11:59 20.2 °C 15.6 °C 1009 hPa SSW 7.1 km/h 16.1 km/h 72.6% 0 mm 656 W/m2
12:04 20.1 °C 15.4 °C 1009 hPa SW 13.8 km/h 27.4 km/h 72% 0 mm 663 W/m2
12:09 19.4 °C 15.1 °C 1009 hPa SW 9.3 km/h 27.4 km/h 73.8% 0 mm 346 W/m2
12:14 19.3 °C 15.1 °C 1009 hPa SW 13.5 km/h 25.7 km/h 74.6% 0 mm 308 W/m2
12:19 19 °C 15 °C 1009 hPa WSW 10.6 km/h 20.9 km/h 75.4% 0 mm 200 W/m2
12:24 18.9 °C 15.1 °C 1008.7 hPa SSW 10 km/h 20.9 km/h 76% 0 mm 195 W/m2
12:29 18.9 °C 15.1 °C 1008.7 hPa SW 6.9 km/h 20.9 km/h 76% 0 mm 167 W/m2
12:34 18.8 °C 15.2 °C 1008.7 hPa SW 8.7 km/h 25.7 km/h 76.6% 0 mm 162 W/m2
12:39 18.6 °C 14.9 °C 1008.7 hPa SW 11.3 km/h 25.7 km/h 76.8% 0 mm 250 W/m2
12:44 18.3 °C 14.8 °C 1008.7 hPa SSW 9.8 km/h 22.5 km/h 77% 0 mm 264 W/m2
12:49 18.4 °C 14.8 °C 1008.7 hPa SSW 11.3 km/h 22.5 km/h 77% 0 mm 230 W/m2
12:54 18.4 °C 14.8 °C 1008.7 hPa SW 9.2 km/h 20.9 km/h 77% 0 mm 165 W/m2
12:59 18.3 °C 14.9 °C 1008.7 hPa SSW 11.3 km/h 27.4 km/h 78% 0 mm 142 W/m2
13:04 18.3 °C 14.9 °C 1008.7 hPa SW 7.4 km/h 19.3 km/h 78% 0 mm 134 W/m2
13:09 18.3 °C 14.9 °C 1008.7 hPa SW 6 km/h 14.5 km/h 78% 0 mm 128 W/m2
13:14 18.2 °C 14.8 °C 1008.7 hPa SSW 12.1 km/h 24.1 km/h 78.2% 0 mm 160 W/m2
13:19 18.1 °C 14.9 °C 1008.7 hPa SSW 10.3 km/h 22.5 km/h 79% 0 mm 118 W/m2
13:24 18.1 °C 15 °C 1008.7 hPa WSW 9.3 km/h 16.1 km/h 79.6% 0 mm 91 W/m2
13:29 18 °C 15 °C 1008.4 hPa WSW 9.5 km/h 22.5 km/h 80% 0 mm 84 W/m2
13:34 17.9 °C 14.9 °C 1008.4 hPa SW 10.3 km/h 22.5 km/h 80% 0 mm 79 W/m2
13:39 17.8 °C 14.8 °C 1008.4 hPa WSW 10.9 km/h 19.3 km/h 80% 0 mm 72 W/m2
13:44 17.8 °C 14.9 °C 1008.4 hPa SW 10.3 km/h 20.9 km/h 80.8% 0 mm 95 W/m2
13:49 17.8 °C 15 °C 1008.4 hPa WSW 9.7 km/h 22.5 km/h 81% 0 mm 70 W/m2
13:54 17.6 °C 14.8 °C 1008.4 hPa West 12.6 km/h 24.1 km/h 81.2% 0 mm 60 W/m2
13:59 17.3 °C 14.8 °C 1008.4 hPa SW 11.1 km/h 25.7 km/h 82% 0 mm 93 W/m2
14:04 17.3 °C 14.9 °C 1008.4 hPa South 8.2 km/h 20.9 km/h 83% 0 mm 146 W/m2
14:09 17.3 °C 14.9 °C 1008.4 hPa SW 11.6 km/h 20.9 km/h 83% 0 mm 142 W/m2
14:14 17.3 °C 14.9 °C 1008.4 hPa SW 8.4 km/h 20.9 km/h 83% 0 mm 146 W/m2
14:19 17.3 °C 14.9 °C 1008 hPa SW 9.2 km/h 17.7 km/h 83% 0 mm 125 W/m2
14:24 17.3 °C 14.9 °C 1008 hPa SSW 7.1 km/h 16.1 km/h 83% 0 mm 271 W/m2
14:29 17.4 °C 15 °C 1008 hPa SSW 8.7 km/h 19.3 km/h 83% 0 mm 362 W/m2
14:34 17.6 °C 15.2 °C 1008 hPa SSW 8.7 km/h 22.5 km/h 83% 0 mm 390 W/m2
14:39 17.7 °C 15.1 °C 1007.7 hPa SW 5.8 km/h 22.5 km/h 82% 0 mm 396 W/m2
14:44 17.8 °C 15.2 °C 1007.7 hPa SW 10.1 km/h 19.3 km/h 81.8% 0 mm 181 W/m2
14:49 17.8 °C 15.1 °C 1007.7 hPa WSW 8.4 km/h 20.9 km/h 81% 0 mm 165 W/m2
14:54 17.8 °C 15 °C 1007.7 hPa WSW 9.3 km/h 17.7 km/h 81% 0 mm 105 W/m2
14:59 17.8 °C 15 °C 1007.7 hPa SW 10 km/h 17.7 km/h 81% 0 mm 95 W/m2
15:04 17.7 °C 14.9 °C 1007.7 hPa SW 10.1 km/h 22.5 km/h 81% 0 mm 81 W/m2
15:09 17.6 °C 14.8 °C 1007.7 hPa SW 9.2 km/h 22.5 km/h 81% 0 mm 98 W/m2
15:14 17.6 °C 15 °C 1007.7 hPa WSW 8.5 km/h 11.3 km/h 82% 0 mm 95 W/m2
15:19 17.6 °C 15 °C 1007.3 hPa WSW 6.4 km/h 19.3 km/h 82% 0 mm 53 W/m2
15:24 17.5 °C 14.9 °C 1007.3 hPa SW 12.6 km/h 19.3 km/h 82% 0 mm 67 W/m2
15:29 17.3 °C 14.8 °C 1007.3 hPa SW 10.8 km/h 22.5 km/h 82.4% 0 mm 98 W/m2
15:34 17.3 °C 14.9 °C 1007.3 hPa SW 10.3 km/h 17.7 km/h 83% 0 mm 123 W/m2
15:39 17.4 °C 15 °C 1007.3 hPa West 10.6 km/h 17.7 km/h 83% 0 mm 86 W/m2
15:44 17.4 °C 14.9 °C 1007.3 hPa WSW 11.9 km/h 22.5 km/h 82.4% 0 mm 63 W/m2
15:49 17.4 °C 14.8 °C 1007.3 hPa WSW 11.9 km/h 17.7 km/h 82% 0 mm 74 W/m2
15:54 17.4 °C 14.8 °C 1007 hPa WSW 5.3 km/h 17.7 km/h 82% 0 mm 53 W/m2
15:59 17.4 °C 14.8 °C 1007 hPa WSW 6.1 km/h 9.7 km/h 82% 0 mm 35 W/m2
16:04 17.4 °C 14.8 °C 1007 hPa West 5.3 km/h 14.5 km/h 82% 0 mm 30 W/m2
16:09 17.4 °C 14.8 °C 1006.7 hPa West 4.7 km/h 9.7 km/h 82% 0 mm 30 W/m2
16:13 17.4 °C 14.9 °C 1006.7 hPa WSW 4.3 km/h 9.7 km/h 82.8% 0 mm 69 W/m2
16:19 17.4 °C 15 °C 1006.7 hPa West 5.3 km/h 8 km/h 83% 0 mm 79 W/m2
16:24 17.4 °C 15 °C 1006.7 hPa WSW 8.7 km/h 11.3 km/h 83% 0 mm 56 W/m2
16:29 17.4 °C 15 °C 1006.7 hPa WSW 8.9 km/h 14.5 km/h 83% 0 mm 32 W/m2
16:34 17.3 °C 14.9 °C 1006.3 hPa SW 5.8 km/h 12.9 km/h 83% 0 mm 35 W/m2
16:39 17.4 °C 15 °C 1006.3 hPa SW 7.1 km/h 11.3 km/h 83% 0 mm 46 W/m2
16:44 17.3 °C 14.9 °C 1006.3 hPa SW 8.2 km/h 14.5 km/h 83% 0 mm 21 W/m2
16:49 17.3 °C 14.9 °C 1006.3 hPa WSW 4 km/h 12.9 km/h 83% 0 mm 25 W/m2
16:54 17.3 °C 14.9 °C 1006.3 hPa WSW 3.4 km/h 9.7 km/h 83% 0 mm 14 W/m2
16:59 17.3 °C 14.9 °C 1006.3 hPa West 3.9 km/h 8 km/h 83% 0 mm 19 W/m2
17:04 17.3 °C 14.9 °C 1006 hPa West 4.3 km/h 8 km/h 83% 0 mm 21 W/m2
17:09 17.2 °C 14.8 °C 1006 hPa West 7.1 km/h 12.9 km/h 83% 0 mm 25 W/m2
17:14 17.2 °C 14.9 °C 1006 hPa West 5.3 km/h 9.7 km/h 83.8% 0 mm 18 W/m2
17:19 17.2 °C 15 °C 1006 hPa West 5.3 km/h 9.7 km/h 84% 0 mm 14 W/m2
17:24 17.2 °C 15 °C 1006 hPa WSW 4.8 km/h 9.7 km/h 84% 0 mm 9 W/m2
17:29 17.1 °C 14.9 °C 1006 hPa WNW 8.5 km/h 12.9 km/h 84% 0 mm 7 W/m2
17:34 16.8 °C 14.7 °C 1006 hPa WNW 6.4 km/h 11.3 km/h 84% 0 mm 7 W/m2
17:39 16.8 °C 14.8 °C 1006 hPa WSW 4.2 km/h 8 km/h 85% 0 mm 12 W/m2
17:44 16.7 °C 14.7 °C 1006 hPa West 5.3 km/h 8 km/h 85% 0 mm 11 W/m2
17:49 16.7 °C 14.7 °C 1006 hPa NW 7.4 km/h 14.5 km/h 85% 0 mm 5 W/m2
17:54 16.6 °C 14.6 °C 1006 hPa WNW 8.2 km/h 14.5 km/h 85% 0 mm 9 W/m2
17:59 16.4 °C 14.4 °C 1006 hPa WNW 4.7 km/h 12.9 km/h 85.2% 0 mm 9 W/m2
18:04 16.3 °C 14.4 °C 1006 hPa WNW 6.6 km/h 11.3 km/h 86% 0 mm 7 W/m2
18:08 16.2 °C 14.3 °C 1006 hPa WNW 4.3 km/h 11.3 km/h 86% 0 mm 14 W/m2
18:14 16.2 °C 14.5 °C 1006 hPa WNW 3.2 km/h 6.4 km/h 87% 0 mm 14 W/m2
18:19 16.1 °C 14.4 °C 1006 hPa WNW 2.7 km/h 6.4 km/h 87% 0 mm 9 W/m2
18:24 16.1 °C 14.6 °C 1006 hPa WNW 2.1 km/h 4.8 km/h 88% 0 mm 5 W/m2
18:29 16 °C 14.5 °C 1005.6 hPa WNW 1.9 km/h 4.8 km/h 88% 0 mm 0 W/m2
18:34 15.9 °C 14.4 °C 1005.6 hPa WNW 0.6 km/h 4.8 km/h 88% 0 mm 7 W/m2
18:39 15.9 °C 14.4 °C 1005.6 hPa WNW 2.7 km/h 4.8 km/h 88% 0 mm 5 W/m2
18:44 15.8 °C 14.5 °C 1005.6 hPa Calm   3.2 km/h 88.6% 0 mm 0 W/m2
18:49 15.9 °C 14.6 °C 1005.6 hPa WNW 0.3 km/h 3.2 km/h 89% 0 mm 0 W/m2
18:54 15.9 °C 14.6 °C 1005.6 hPa WNW 0.3 km/h 3.2 km/h 89% 0 mm 0 W/m2
18:59 15.8 °C 14.5 °C 1005.6 hPa WNW 1 km/h 3.2 km/h 89% 0 mm 0 W/m2
19:04 15.8 °C 14.5 °C 1005.6 hPa WNW 1.6 km/h 4.8 km/h 89% 0 mm 0 W/m2
19:09 15.7 °C 14.6 °C 1005.6 hPa WNW 2.1 km/h 3.2 km/h 89.6% 0 mm 0 W/m2
19:14 15.7 °C 14.6 °C 1005.6 hPa Calm   3.2 km/h 90% 0 mm 0 W/m2
19:19 15.7 °C 14.6 °C 1005.6 hPa Calm     90% 0 mm 0 W/m2
19:24 15.7 °C 14.6 °C 1005.6 hPa Calm     90% 0 mm 0 W/m2
19:29 15.7 °C 14.6 °C 1005.6 hPa Calm     90% 0 mm 0 W/m2
19:34 15.7 °C 14.6 °C 1005.6 hPa Calm     90% 0 mm 0 W/m2
19:39 15.7 °C 14.6 °C 1005.6 hPa Calm   1.6 km/h 90% 0 mm 0 W/m2
19:44 15.7 °C 14.6 °C 1005.6 hPa Calm   1.6 km/h 90% 0 mm 0 W/m2
19:49 15.7 °C 14.6 °C 1005.6 hPa WNW 1.3 km/h 6.4 km/h 90% 0 mm 0 W/m2
19:54 15.7 °C 14.6 °C 1005.3 hPa WNW 1.3 km/h 6.4 km/h 90% 0 mm 0 W/m2
19:59 15.7 °C 14.7 °C 1005.3 hPa WNW 0.6 km/h 4.8 km/h 90.8% 0 mm 0 W/m2
20:04 15.7 °C 14.7 °C 1005.3 hPa WNW 2.9 km/h 6.4 km/h 91% 0 mm 0 W/m2
20:09 15.6 °C 14.6 °C 1005.6 hPa WNW 1.4 km/h 4.8 km/h 91% 0 mm 0 W/m2
20:14 15.7 °C 14.7 °C 1005.3 hPa WNW 1.9 km/h 4.8 km/h 91% 0 mm 0 W/m2
20:19 15.7 °C 14.7 °C 1005.3 hPa WNW 0.6 km/h 4.8 km/h 91% 0 mm 0 W/m2
20:24 15.7 °C 14.7 °C 1005.6 hPa WNW 2.9 km/h 6.4 km/h 91% 0 mm 0 W/m2
20:28 15.7 °C 14.7 °C 1005.3 hPa WNW 0.3 km/h 3.2 km/h 91% 0 mm 0 W/m2
20:34 15.7 °C 14.7 °C 1005.3 hPa WNW 0.3 km/h 3.2 km/h 91% 0.25 mm 0 W/m2
20:39 15.7 °C 14.7 °C 1005.3 hPa WNW 0.3 km/h 3.2 km/h 91% 0.25 mm 0 W/m2
20:44 15.7 °C 14.7 °C 1005.3 hPa WNW 0.6 km/h 1.6 km/h 91% 0.25 mm 0 W/m2
20:49 15.7 °C 14.7 °C 1005.3 hPa Calm   1.6 km/h 91% 0.25 mm 0 W/m2
20:54 15.7 °C 14.7 °C 1005.3 hPa Calm   1.6 km/h 91% 0.25 mm 0 W/m2
20:59 15.7 °C 14.7 °C 1005.3 hPa WNW 0.3 km/h 1.6 km/h 91% 0.25 mm 0 W/m2
21:04 15.6 °C 14.6 °C 1005.3 hPa WNW 2.6 km/h 4.8 km/h 91% 0.25 mm 0 W/m2
21:09 15.6 °C 14.6 °C 1005.3 hPa WNW 0.6 km/h 4.8 km/h 91% 0.25 mm 0 W/m2
21:14 15.6 °C 14.6 °C 1005.3 hPa WNW 1 km/h 3.2 km/h 91% 0.25 mm 0 W/m2
21:19 15.6 °C 14.6 °C 1005.3 hPa WNW 0.6 km/h 3.2 km/h 91% 0.25 mm 0 W/m2
21:24 15.6 °C 14.7 °C 1005.3 hPa Calm   1.6 km/h 91.4% 0.25 mm 0 W/m2
21:29 15.6 °C 14.7 °C 1005 hPa Calm     92% 0.25 mm 0 W/m2
21:34 15.6 °C 14.6 °C 1005 hPa Calm     91.3% 0 mm 0 W/m2
21:39 15.5 °C 14.7 °C 1005 hPa Calm     91.8% 0 mm 0 W/m2
21:44 15.4 °C 14.7 °C 1005 hPa Calm     92% 0 mm 0 W/m2
21:49 15.4 °C 14.6 °C 1005 hPa Calm   3.2 km/h 92% 0 mm 0 W/m2
21:54 15.4 °C 14.6 °C 1005 hPa Calm     92% 0 mm 0 W/m2
22:04 15.3 °C 14.5 °C 1004.6 hPa WNW 0.3 km/h 3.2 km/h 92% 0 mm 0 W/m2
22:09 15.3 °C 14.5 °C 1004.6 hPa Calm     92% 0 mm 0 W/m2
22:14 15.3 °C 14.5 °C 1004.6 hPa Calm     92% 0 mm 0 W/m2
22:19 15.2 °C 14.4 °C 1004.3 hPa Calm     92% 0 mm 0 W/m2
22:24 15.2 °C 14.4 °C 1004.3 hPa Calm     92% 0 mm 0 W/m2
22:29 15.2 °C 14.4 °C 1004.3 hPa Calm     92% 0 mm 0 W/m2
22:34 15.1 °C 14.3 °C 1004.3 hPa WNW 1.3 km/h 3.2 km/h 92% 0 mm 0 W/m2
22:39 15.1 °C 14.3 °C 1004.3 hPa WNW 0.6 km/h 4.8 km/h 92% 0 mm 0 W/m2
22:44 15.1 °C 14.3 °C 1004.3 hPa WNW 1 km/h 4.8 km/h 92% 0 mm 0 W/m2
22:49 15.1 °C 14.3 °C 1004.3 hPa WNW 2.1 km/h 6.4 km/h 92% 0 mm 0 W/m2
22:54 15.1 °C 14.3 °C 1004.3 hPa WNW 2.6 km/h 4.8 km/h 92% 0 mm 0 W/m2
22:59 15.1 °C 14.3 °C 1004.3 hPa WNW 2.7 km/h 8 km/h 92% 0 mm 0 W/m2
23:04 15.2 °C 14.3 °C 1004.3 hPa WNW 0.6 km/h 4.8 km/h 92% 0 mm 0 W/m2
23:09 15.2 °C 14.4 °C 1003.9 hPa WNW 0.3 km/h 4.8 km/h 92% 0 mm 0 W/m2
23:14 15.2 °C 14.4 °C 1003.9 hPa WNW 0.6 km/h 3.2 km/h 92% 0 mm 0 W/m2
23:19 15.2 °C 14.4 °C 1003.9 hPa WNW 1.1 km/h 4.8 km/h 92% 0 mm 0 W/m2
23:24 15.2 °C 14.4 °C 1003.9 hPa WNW 1 km/h 3.2 km/h 92% 0 mm 0 W/m2
23:29 15.2 °C 14.4 °C 1003.9 hPa WNW 1 km/h 4.8 km/h 92% 0 mm 0 W/m2
23:34 15.2 °C 14.4 °C 1003.9 hPa Calm   3.2 km/h 92% 0 mm 0 W/m2
23:39 15.2 °C 14.4 °C 1003.9 hPa WNW 1.9 km/h 4.8 km/h 92% 0 mm 0 W/m2
23:44 15.2 °C 14.4 °C 1003.9 hPa WNW 0.8 km/h 4.8 km/h 92% 0 mm 0 W/m2
23:49 15.3 °C 14.5 °C 1003.6 hPa WNW 1.3 km/h 4.8 km/h 92% 0 mm 0 W/m2
23:54 15.3 °C 14.5 °C 1003.6 hPa WNW 0.6 km/h 4.8 km/h 92% 0 mm 0 W/m2
23:59 15.3 °C 14.5 °C 1003.6 hPa WNW 0.8 km/h 4.8 km/h 92% 0 mm 0 W/m2
Bath Spa Weather
Compliments of Weather Underground - 2 mb